CW9676 Weather Reports


Display with metric or nautical units.
time (UTC)temp
F
wind
direction
speed
MPH
gust
MPH
rain 1hr
in
rain 24hr
in
rain mn
in
humidity
%
barometer
mb
20260901150038 68 215 3.0 8.0 0.00 0.00 0.00 64 1008.5
20260901141637 67 213 4.0 9.0 0.00 0.00 0.00 65 1008.4
20260901140629 67 177 3.0 6.0 0.00 0.00 0.00 65 1008.3
20260901135627 66 211 3.0 6.0 0.00 0.00 0.00 66 1008.3
20260901131152 64 213 4.0 10.0 0.00 0.00 0.00 68 1008.1
20260901130128 64 210 4.0 10.0 0.00 0.00 0.00 68 1007.9
20260901125100 64 224 3.0 5.0 0.00 0.00 0.00 68 1007.8
20260901124055 64 217 4.0 7.0 0.00 0.00 0.00 68 1007.8
20260901123059 63 238 4.0 7.0 0.00 0.00 0.00 70 1007.6
20260901122110 63 243 4.0 6.0 0.00 0.00 0.00 70 1007.6
20260901121126 63 231 3.0 6.0 0.00 0.00 0.00 70 1007.6
20260901120054 63 230 3.0 6.0 0.00 0.00 0.00 70 1007.6
20260901115112 63 211 4.0 6.0 0.00 0.00 0.00 70 1007.6
20260901114056 63 227 3.0 5.0 0.00 0.00 0.00 69 1007.5
20260901113036 64 196 2.0 5.0 0.00 0.00 0.00 68 1007.7
20260901110858 65 179 2.0 3.0 0.00 0.00 0.00 61 1007.5
20260901105842 65 248 1.0 2.0 0.00 0.00 0.00 61 1007.4
20260901104823 64 248 0.0 2.0 0.00 0.00 0.00 64 1007.3
20260901103750 64 248 1.0 2.0 0.00 0.00 0.00 65 1007.3
20260901102750 65 248 1.0 2.0 0.00 0.00 0.00 66 1007.4
20260901101733 65 214 1.0 2.0 0.00 0.00 0.00 66 1007.5
20260901100736 65 206 0.0 2.0 0.00 0.00 0.00 65 1007.5
20260901095757 65 175 1.0 2.0 0.00 0.00 0.00 65 1007.4
20260901094733 66 177 1.0 3.0 0.00 0.00 0.00 63 1007.6
20260901093704 66 215 1.0 3.0 0.00 0.00 0.00 61 1007.6
20260901092653 67 223 1.0 2.0 0.00 0.00 0.00 59 1007.6
20260901085416 67 240 4.0 7.0 0.00 0.00 0.00 60 1007.6
20260901084410 67 231 4.0 6.0 0.00 0.00 0.00 61 1007.5
20260901083342 67 219 3.0 5.0 0.00 0.00 0.00 62 1007.9
20260901082348 67 203 2.0 4.0 0.00 0.00 0.00 62 1008.1
20260901081339 67 211 2.0 5.0 0.00 0.00 0.00 62 1008.2
20260901075153 67 225 2.0 6.0 0.00 0.00 0.00 63 1008.2
20260901074134 67 237 3.0 6.0 0.00 0.00 0.00 63 1008.2
20260901073100 67 244 4.0 6.0 0.00 0.00 0.00 63 1008.2
20260901070959 66 234 3.0 6.0 0.00 0.00 0.00 64 1008.2
20260901065924 67 233 2.0 5.0 0.00 0.00 0.00 63 1008.3
20260901063819 67 130 0.0 3.0 0.00 0.00 0.00 63 1008.6
20260901062755 67 143 0.0 0.0 0.00 0.00 0.00 63 1008.7
20260901061725 67 165 3.0 6.0 0.00 0.00 0.00 62 1008.5
20260901060714 67 200 3.0 6.0 0.00 0.00 0.00 63 1008.2
20260901055735 67 202 2.0 7.0 0.00 0.00 0.00 63 1008.0
20260901054723 67 199 2.0 7.0 0.00 0.00 0.00 63 1008.3
20260901053653 67 180 2.0 5.0 0.00 0.00 0.00 63 1008.3
20260901051526 67 230 3.0 8.0 0.00 0.00 0.00 63 1008.5
20260901050551 67 151 4.0 10.0 0.00 0.00 0.00 62 1008.6
20260901045538 67 184 5.0 14.0 0.00 0.00 0.00 61 1008.8
20260901044556 67 165 8.0 14.0 0.00 0.00 0.00 61 1008.7
20260901042409 68 133 6.0 11.0 0.00 0.00 0.00 60 1008.6
20260901041427 69 140 2.0 4.0 0.00 0.00 0.00 60 1008.9
20260901040424 69 113 2.0 9.0 0.00 0.00 0.00 60 1008.6
20260901033222 71 186 5.0 11.0 0.00 0.00 0.00 50 1006.9
20260901032207 72 168 4.0 11.0 0.00 0.00 0.00 49 1006.9
20260901031215 72 186 3.0 9.0 0.00 0.00 0.00 48 1006.7
20260901030147 73 182 3.0 9.0 0.00 0.00 0.00 47 1006.2
20260901025127 73 233 5.0 9.0 0.00 0.00 0.00 47 1005.7
20260901024129 72 237 4.0 9.0 0.00 0.00 0.00 47 1005.6
20260901023129 72 210 5.0 10.0 0.00 0.00 0.00 47 1005.3
20260901022109 72 213 6.0 13.0 0.00 0.00 0.00 48 1005.2
20260901021037 72 242 8.0 13.0 0.00 0.00 0.00 48 1005.0
20260901020007 73 224 7.0 17.0 0.00 0.00 0.00 49 1004.8
20260901014935 73 200 9.0 17.0 0.00 0.00 0.00 49 1004.6
20260901013955 73 239 9.0 15.0 0.00 0.00 0.00 50 1004.4
20260901010634 74 214 7.0 16.0 0.00 0.00 0.00 49 1004.2
20260901005653 74 166 9.0 19.0 0.00 0.00 0.00 49 1004.5
20260901004649 75 183 10.0 19.0 0.00 0.00 0.00 48 1004.5
20260901003705 75 177 10.0 18.0 0.00 0.00 0.00 47 1004.5
20260901002647 76 221 9.0 18.0 0.00 0.00 0.00 46 1004.4
20260901001651 76 215 8.0 16.0 0.00 0.00 0.00 46 1004.4
20260901000630 77 175 9.0 19.0 0.00 0.00 0.00 45 1004.4
20260831234519 77 157 11.0 18.0 0.00 0.00 0.00 46 1004.4
20260831233459 79 163 10.0 21.0 0.00 0.00 0.00 44 1004.5
20260831232436 80 178 14.0 21.0 0.00 0.00 0.00 42 1004.4
20260831231440 81 164 12.0 22.0 0.00 0.00 0.00 41 1004.1
20260831230453 80 204 14.0 24.0 0.00 0.00 0.00 42 1004.0
20260831225446 81 163 13.0 25.0 0.00 0.00 0.00 40 1003.8
20260831224421 81 132 14.0 25.0 0.00 0.00 0.00 40 1004.0
20260831222306 83 100 14.0 22.0 0.00 0.00 0.00 37 1004.2
20260831220116 85 91 13.0 22.0 0.00 0.00 0.00 35 1004.4
20260831213958 85 72 13.0 22.0 0.00 0.00 0.00 36 1004.4
20260831213022 86 63 13.0 22.0 0.00 0.00 0.00 35 1004.9
20260831210834 84 90 9.0 20.0 0.00 0.00 0.00 35 1005.2
20260831204651 86 98 5.0 17.0 0.00 0.00 0.00 34 1005.4
20260831203658 85 80 6.0 14.0 0.00 0.00 0.00 33 1005.7
20260831202654 84 58 5.0 14.0 0.00 0.00 0.00 35 1006.0
20260831201622 84 55 7.0 14.0 0.00 0.00 0.00 34 1006.0
20260831200624 86 94 6.0 13.0 0.00 0.00 0.00 32 1006.0
20260831195629 85 150 6.0 13.0 0.00 0.00 0.00 34 1006.2
20260831194625 85 79 8.0 14.0 0.00 0.00 0.00 32 1006.3
20260831193624 84 138 6.0 14.0 0.00 0.00 0.00 34 1006.3
20260831192643 84 155 7.0 12.0 0.00 0.00 0.00 33 1006.4
20260831191653 83 59 9.0 16.0 0.00 0.00 0.00 35 1006.6
20260831190624 83 123 9.0 19.0 0.00 0.00 0.00 36 1006.6
20260831185601 82 107 10.0 19.0 0.00 0.00 0.00 37 1006.6
20260831184621 82 121 9.0 19.0 0.00 0.00 0.00 37 1006.8
20260831183633 82 137 9.0 19.0 0.00 0.00 0.00 38 1007.0
20260831182626 81 115 9.0 17.0 0.00 0.00 0.00 37 1007.0
20260831181606 80 115 9.0 17.0 0.00 0.00 0.00 39 1007.1
20260831180603 80 80 9.0 16.0 0.00 0.00 0.00 40 1007.2
20260831175604 79 84 9.0 16.0 0.00 0.00 0.00 39 1007.3
20260831173525 78 44 9.0 19.0 0.00 0.00 0.00 43 1007.6
20260831172510 78 85 10.0 19.0 0.00 0.00 0.00 42 1007.5
20260831171521 78 117 10.0 19.0 0.00 0.00 0.00 43 1007.6
20260831170531 76 140 11.0 19.0 0.00 0.00 0.00 43 1007.6
20260831165515 76 97 10.0 18.0 0.00 0.00 0.00 47 1007.6
20260831164530 76 99 11.0 18.0 0.00 0.00 0.00 46 1007.5
20260831163520 76 83 10.0 17.0 0.00 0.00 0.00 48 1007.5
20260831161403 76 119 10.0 15.0 0.00 0.00 0.00 48 1007.5
20260831160346 76 125 8.0 16.0 0.00 0.00 0.00 48 1007.4
20260831155330 75 123 10.0 16.0 0.00 0.00 0.00 47 1007.2
20260831154345 74 95 10.0 16.0 0.00 0.00 0.00 48 1007.1
20260831153317 73 150 11.0 19.0 0.00 0.00 0.00 53 1006.9
20260831151116 72 117 10.0 18.0 0.00 0.00 0.00 60 1006.9
20260831150109 72 117 9.0 17.0 0.00 0.00 0.00 63 1006.9